Location: Saratoga Springs
(43.0831°N, 73.7850°W)
Time: 01:56:01
(UTC-04:00)

Vanguard 1 Rocket - Pass Details

Date: 17 April 2024
Orbit: 651 x 4220 km, 34.3° (Epoch: 17 May)

Event Time Altitude Azimuth Distance (km) Brightness Sun altitude
Rises 22:59:20 0° 264° (W) 3,873 11.0 -29.9°
Reaches altitude 10° 23:01:35 10° 258° (WSW) 3,187 10.4 -30.1°
Enters shadow 23:09:18 49° 186° (S) 2,241 8.9 -30.8°
Maximum altitude 23:09:21 49° 185° (S) 2,246 - -30.9°
Drops below altitude 10° 23:24:13 10° 118° (ESE) 5,885 - -32.1°
Sets 23:30:08 0° 114° (ESE) 7,439 - -32.6°
